TimeEST,TemperatureF,Dew PointF,Humidity,Sea Level PressureIn,VisibilityMPH,Wind Direction,Wind SpeedMPH,Gust SpeedMPH,PrecipitationIn,Events,Conditions,WindDirDegrees,DateUTC
12:53 AM,23.0,12.9,65,30.23,10.0,Calm,Calm,-,N/A,,Clear,0,2013-01-03 05:53:00
1:53 AM,23.0,12.0,63,30.22,10.0,Calm,Calm,-,N/A,,Clear,0,2013-01-03 06:53:00
2:53 AM,23.0,12.9,65,30.22,10.0,Calm,Calm,-,N/A,,Clear,0,2013-01-03 07:53:00
3:53 AM,19.9,12.0,71,30.22,10.0,Calm,Calm,-,N/A,,Clear,0,2013-01-03 08:53:00
4:53 AM,19.9,10.9,68,30.22,10.0,Calm,Calm,-,N/A,,Clear,0,2013-01-03 09:53:00
5:53 AM,19.0,10.9,71,30.23,10.0,Calm,Calm,-,N/A,,Clear,0,2013-01-03 10:53:00
6:53 AM,17.1,10.0,74,30.24,10.0,WSW,3.5,-,N/A,,Clear,240,2013-01-03 11:53:00
7:53 AM,15.1,10.0,80,30.24,7.0,SW,3.5,-,N/A,,Clear,230,2013-01-03 12:53:00
8:53 AM,18.0,10.9,74,30.25,10.0,Calm,Calm,-,N/A,,Clear,0,2013-01-03 13:53:00
9:53 AM,26.1,12.9,58,30.24,10.0,SSW,3.5,-,N/A,,Clear,200,2013-01-03 14:53:00
10:53 AM,28.0,12.9,53,30.23,10.0,Calm,Calm,-,N/A,,Clear,0,2013-01-03 15:53:00
11:53 AM,28.9,14.0,54,30.19,10.0,Calm,Calm,-,N/A,,Clear,0,2013-01-03 16:53:00
12:53 PM,30.0,15.1,54,30.17,10.0,Variable,4.6,-,N/A,,Clear,0,2013-01-03 17:53:00
1:53 PM,32.0,15.1,50,30.15,10.0,Variable,5.8,-,N/A,,Clear,0,2013-01-03 18:53:00
2:53 PM,33.1,16.0,50,30.14,10.0,Variable,5.8,-,N/A,,Clear,0,2013-01-03 19:53:00
4:53 PM,32.0,17.1,54,30.16,10.0,Calm,Calm,-,N/A,,Clear,0,2013-01-03 21:53:00
5:53 PM,30.0,17.1,59,30.16,10.0,Variable,3.5,-,N/A,,Clear,0,2013-01-03 22:53:00
7:53 PM,34.0,16.0,48,30.17,10.0,Variable,6.9,16.1,N/A,,Clear,0,2013-01-04 00:53:00
8:53 PM,34.0,16.0,48,30.17,10.0,Variable,4.6,-,N/A,,Mostly Cloudy,0,2013-01-04 01:53:00
9:53 PM,34.0,17.1,50,30.16,10.0,Variable,6.9,-,N/A,,Clear,0,2013-01-04 02:53:00
10:53 PM,33.1,17.1,52,30.16,10.0,SW,8.1,-,N/A,,Clear,230,2013-01-04 03:53:00
11:53 PM,33.1,18.0,54,30.16,10.0,Calm,Calm,-,N/A,,Overcast,0,2013-01-04 04:53:00